Location: Libas
(9.8833°N, 125.9833°E)
Time: 22:02:06
(UTC+00:00)

GPS 2-17 Rocket1 - Pass Details

Date: 27 October 2020
Orbit: 571 x 659 km, 20.3° (Epoch: 25 November)

Event Time Altitude Azimuth Distance (km) Brightness Sun altitude
Exits shadow 19:43:26 27° 18° (NNE) 1,172 4.5 -25.5°
Drops below altitude 10° 19:46:57 10° 68° (ENE) 1,959 6.4 -24.7°
Sets 19:49:37 0° 80° (E) 2,882 7.7 -24.0°
